User: anonymous   Login
Location: Newark
(11.2914°S, 14.4718°E)
Time: 01:11:42
(UTC+00:00)
Language:

Transit 2A Rocket - Orbit

View from above orbital plane
View from above orbital plane
View from above satellite
View from above satellite

Ground track
Ground track

The orbit data is extracted from the following two-line orbital elements,

1    47U 60007C   19290.85113884 -.00000034  00000-0  17301-4 0  9997
2    47  66.6650  86.3346 0221635 122.5871 239.6846 14.42053715100008
Epoch (UTC): 17 October 2019 20:25:38
Eccentricity: 0.0221635
inclination: 66.6650°
perigee height: 594 km
apogee height: 910 km
right ascension of ascending node: 86.3346°
argument of perigee: 122.5871°
revolutions per day: 14.42053715
mean anomaly at epoch: 239.6846°
orbit number at epoch: 10000

The dashed part of the orbit path shows where the satellite is in the earth's shadow,  

DLR